[[{"header":{"parameterUnit":"m.s-1","parameterCategory":1,"la1":30.2991,"la2":30.254,"lo1":-89.0895,"lo2":-89.0444,"dy":0.0017,"dx":0.0017,"nx":28,"ny":28,"refTime":"2025-11-16T09:00:00:Z","depth":0,"parameterNumber":2,"parameterNumberName":"U-component_of_WINDS"},"data":[0,0,0,0,0,0,0,0,0,0,0,0,0,0,0,0,0,0,0,0,0,0,0,0,0,0,0,0,0,0,0,0,0,0,0,0,0,0,0,0,0,0,0,0,0,0,0,0,0,0,0,0,0,0,0,0,0,0,2.4017,2.4018,0,2.4102,2.4103,2.4104,2.4121,2.412,2.4119,2.4119,2.4207,2.421,2.4213,0,0,0,0,0,0,0,0,0,0,0,0,0,2.3872,2.3875,2.4017,2.4018,2.4019,2.4102,2.4103,2.4104,2.4121,2.412,2.4119,2.4119,2.4206,2.4209,2.4213,0,0,0,0,0,0,0,0,0,0,0,0,0,2.3944,2.3875,2.4016,2.4037,2.404,2.4102,2.4103,2.4104,2.4121,2.412,2.4119,2.4118,2.4205,2.4209,2.4214,2.4261,0,0,2.4227,2.4229,0,0,0,0,0,0,0,0,2.394,2.3949,2.4033,2.4036,2.4039,2.41,2.4084,2.4157,2.4121,2.409,2.4119,2.4118,2.4172,2.4179,2.4197,2.4265,2.4269,2.4228,2.423,2.4232,2.4233,0,0,0,0,0,0,0,2.3935,2.3946,2.405,2.4034,2.4038,2.4043,2.4052,2.4098,2.4136,2.4093,2.4094,2.4104,2.4174,2.4193,2.42,2.427,2.4227,2.4231,2.4234,2.4236,2.4385,2.4387,0,0,0,0,0,0,2.3926,2.3941,2.4048,2.4053,2.3986,2.4047,2.4057,2.4081,2.4135,2.4143,2.4105,2.4105,2.4186,2.4194,2.4203,2.4265,2.4232,2.4236,2.4239,2.4384,2.4386,2.4387,0,0,0,0,0,0,2.3923,2.3935,2.4044,2.3998,2.4012,2.405,2.4077,2.4083,2.4103,2.4144,2.4151,2.4118,2.4186,2.4197,2.4247,2.4268,2.4238,2.4242,2.4383,2.4385,2.4386,2.4386,0,0,0,0,0,0,2.3918,2.3934,2.3951,2.3998,2.4014,2.4086,2.4079,2.4086,2.411,2.4111,2.4158,2.4165,2.4186,2.4241,2.4252,2.4273,2.4246,2.4381,2.4384,2.4386,2.4385,2.4388,2.4391,0,0,0,0,0,2.3913,2.3947,2.3952,2.3964,2.4037,2.4087,2.4097,2.4119,2.4112,2.4131,2.4158,2.4164,2.4264,2.4246,2.4258,2.4281,2.438,2.4383,2.4386,2.4383,2.4387,2.4391,0,0,0,0,0,0,2.3901,2.3953,2.3959,2.4009,2.4044,2.409,2.4114,2.4122,2.416,2.4159,2.4186,2.4196,2.4246,2.4269,2.4248,2.4332,2.4322,2.4327,2.4315,2.432,2.4323,2.4316,2.425,0,0,0,0,0,2.3904,2.394,2.3984,2.4024,2.4041,2.4075,2.4097,2.4112,2.4149,2.4164,2.4195,2.4231,2.4271,2.4297,2.4335,2.4388,2.4401,2.4411,2.4414,2.4417,2.4421,2.4454,2.446,2.4397,2.4397,2.4397,0,0,2.391,2.3944,2.3964,2.4022,2.4051,2.4089,2.4087,2.4126,2.4155,2.417,2.422,2.4245,2.4287,2.434,2.4365,2.4361,2.4442,2.442,2.4422,2.4425,2.4458,2.4464,2.4469,2.4399,2.4398,2.4398,0,0,2.3942,2.397,2.4008,2.4037,2.4081,2.4104,2.4113,2.4159,2.4176,2.4227,2.424,2.4276,2.4343,2.4374,2.4398,2.4447,2.4454,2.4458,2.4475,2.4507,2.4512,2.4516,2.4536,2.4542,2.4463,2.4463,2.4463,0,2.3945,2.4002,2.4026,2.4066,2.4093,2.4109,2.4149,2.4176,2.423,2.4249,2.4243,2.4331,2.436,2.4422,2.4435,2.4453,2.4466,2.4453,2.4509,2.4514,2.4519,2.4537,2.4544,2.4463,2.4463,2.4463,2.4463,0,2.4005,2.4044,2.407,2.4123,2.4152,2.4192,2.4224,2.4251,2.4264,2.4288,2.4342,2.4379,2.4427,2.4443,2.4455,2.4508,2.4504,2.4503,2.4493,2.4525,2.4543,2.455,2.4464,2.4464,2.4464,2.4463,0,0,2.4029,2.4097,2.4106,2.4132,2.4184,2.4215,2.4257,2.4305,2.4329,2.4367,2.4404,2.4463,2.4464,2.4492,2.4508,2.4536,2.4576,2.4533,2.4535,2.4541,2.4639,2.464,2.4647,2.4581,2.4583,2.4584,2.4636,0,2.4068,2.4142,2.4167,2.423,2.4269,2.4287,2.4324,2.436,2.4385,2.4422,2.445,2.4492,2.4489,2.4506,2.4535,2.4565,2.4596,2.4561,2.4618,2.4619,2.4607,2.4657,2.4657,2.4704,2.4643,2.4644,2.4645,0,2.4123,2.4163,2.423,2.428,2.4297,2.433,2.4377,2.4412,2.4456,2.4472,2.4505,2.452,2.4567,2.4555,2.4621,2.4597,2.4622,2.4641,2.4643,2.465,2.4634,2.4666,2.4719,2.4727,2.4656,2.4655,2.4655,0,2.4136,2.4207,2.4257,2.4278,2.4337,2.436,2.4386,2.4428,2.4457,2.4499,2.4518,2.4564,2.459,2.4627,2.4656,2.4644,2.4721,2.471,2.4737,2.4736,2.4752,2.4751,2.4811,2.4766,2.4766,2.4766,2.4766,0,2.4178,2.4218,2.4264,2.4295,2.4342,2.4372,2.4418,2.4445,2.4483,2.4521,2.4539,2.4574,2.461,2.465,2.4673,2.4726,2.4737,2.4753,2.4759,2.4752,2.475,2.4769,2.4767,2.4768,2.4768,2.4767,2.4767,0,2.42,2.4232,2.4288,2.4341,2.4355,2.4388,2.4433,2.4465,2.4491,2.4539,2.4552,2.4594,2.4643,2.4676,2.4738,2.4754,2.4812,2.4816,2.4797,2.48,2.4826,2.4824,2.4902,2.4915,2.486,2.486,2.4861,0,2.4225,2.4257,2.4313,2.434,2.4366,2.4409,2.4439,2.447,2.45,2.4554,2.458,2.4631,2.4673,2.4751,2.4788,2.4836,2.4843,2.4867,2.485,2.4843,2.4845,2.4843,2.4848,2.487,2.487,2.487,2.4871,0,2.4266,2.4281,2.4323,2.4372,2.4407,2.4446,2.4486,2.4507,2.4546,2.458,2.4631,2.4663,2.4729,2.478,2.4833,2.4861,2.4873,2.4876,2.4885,2.4879,2.4867,2.4876,2.4806,2.4874,2.4873,2.4873,2.4873,2.4873,2.4291,2.4322,2.4368,2.4415,2.4448,2.4486,2.4519,2.4551,2.4594,2.465,2.4666,2.472,2.4766,2.4838,2.4868,2.4911,2.4909,2.4922,2.4925,2.4928,2.4929,2.486,2.4921,2.4921,2.4921,2.4921,2.4921,0,2.4335,2.4366,2.4409,2.4465,2.4503,2.4512,2.4558,2.4589,2.4636,2.4678,2.472,2.478,2.4831,2.4872,2.4925,2.4952,2.4959,2.4965,2.4963,2.497,2.4927,2.4915,2.4958,2.4958,2.4958,2.4958,2.4958,2.4958,2.4362,2.4415,2.4437,2.4508,2.4539,2.4592,2.4618,2.4654,2.4688,2.4754,2.4796,2.4824,2.4866,2.4923,2.497,2.4982,2.5001,2.5005,2.5018,2.4977,2.4973,2.4969,2.4957,2.5009,2.5009,2.5058,2.5058,2.5058]},{"header":{"parameterUnit":"m.s-1","parameterCategory":1,"la1":30.2991,"la2":30.254,"lo1":-89.0895,"lo2":-89.0444,"dy":0.0017,"dx":0.0017,"nx":28,"ny":28,"refTime":"2025-11-16T09:00:00:Z","depth":0,"parameterNumber":3,"parameterNumberName":"V-component_of_WINDS"},"data":[0,0,0,0,0,0,0,0,0,0,0,0,0,0,0,0,0,0,0,0,0,0,0,0,0,0,0,0,0,0,0,0,0,0,0,0,0,0,0,0,0,0,0,0,0,0,0,0,0,0,0,0,0,0,0,0,0,0,1.421,1.4211,0,1.4296,1.4297,1.4298,1.4314,1.4314,1.4313,1.4312,1.4398,1.4401,1.4404,0,0,0,0,0,0,0,0,0,0,0,0,0,1.4055,1.4058,1.421,1.4211,1.4212,1.4296,1.4297,1.4298,1.4314,1.4314,1.4313,1.4312,1.4398,1.4401,1.4405,0,0,0,0,0,0,0,0,0,0,0,0,0,1.413,1.4059,1.421,1.423,1.4233,1.4296,1.4297,1.4298,1.4315,1.4314,1.4312,1.4312,1.4396,1.4401,1.4405,1.4453,0,0,1.4418,1.442,0,0,0,0,0,0,0,0,1.4126,1.4136,1.4226,1.4229,1.4232,1.4293,1.4274,1.435,1.4315,1.4283,1.4312,1.4311,1.4364,1.4371,1.439,1.4457,1.446,1.4419,1.4421,1.4423,1.4425,0,0,0,0,0,0,0,1.4121,1.4132,1.4244,1.4227,1.4231,1.4234,1.4243,1.4289,1.4328,1.4286,1.4288,1.4298,1.4366,1.4385,1.4392,1.4462,1.4419,1.4423,1.4425,1.4427,1.4568,1.4569,0,0,0,0,0,0,1.4112,1.4128,1.4241,1.4246,1.4175,1.4237,1.4248,1.4275,1.4328,1.4335,1.4298,1.4298,1.4378,1.4387,1.4395,1.4452,1.4423,1.4427,1.443,1.4567,1.4569,1.457,0,0,0,0,0,0,1.4109,1.4122,1.4238,1.4187,1.4202,1.4241,1.4271,1.4277,1.4297,1.4337,1.4344,1.4311,1.4378,1.4389,1.4437,1.4455,1.4429,1.4433,1.4566,1.4568,1.4569,1.4568,0,0,0,0,0,0,1.4104,1.4121,1.4141,1.4188,1.4205,1.428,1.4272,1.4279,1.4304,1.4305,1.4351,1.4358,1.4378,1.4431,1.4442,1.4461,1.4437,1.4564,1.4567,1.4569,1.4566,1.4569,1.4571,0,0,0,0,0,1.4099,1.4137,1.4142,1.4155,1.4231,1.4281,1.4291,1.4313,1.4306,1.4325,1.435,1.4357,1.4451,1.4436,1.4448,1.4469,1.4563,1.4566,1.4568,1.4565,1.4568,1.4571,0,0,0,0,0,0,1.4091,1.4144,1.4149,1.4204,1.4238,1.4284,1.4309,1.4317,1.4353,1.4352,1.4378,1.4388,1.4435,1.4457,1.4438,1.4516,1.4507,1.4512,1.45,1.4503,1.4506,1.4499,1.4441,0,0,0,0,0,1.4096,1.4133,1.4177,1.4221,1.4238,1.427,1.4293,1.4307,1.4343,1.4358,1.4387,1.4421,1.4458,1.4482,1.4519,1.4569,1.4578,1.4589,1.4592,1.4594,1.4598,1.4623,1.4628,1.4578,1.4578,1.4578,0,0,1.4106,1.4139,1.4162,1.422,1.4248,1.4285,1.4282,1.4322,1.4349,1.4364,1.4411,1.4433,1.4473,1.4522,1.4545,1.4542,1.4613,1.4597,1.4598,1.4601,1.4626,1.4631,1.4635,1.458,1.4579,1.4579,0,0,1.4143,1.4173,1.4211,1.4239,1.4281,1.4302,1.4311,1.4355,1.4371,1.4419,1.4429,1.4461,1.4525,1.4552,1.4574,1.4617,1.4623,1.4628,1.4641,1.4666,1.467,1.4673,1.4687,1.4692,1.4632,1.4632,1.4632,0,1.415,1.4207,1.423,1.4269,1.4293,1.4307,1.4345,1.4371,1.4423,1.4438,1.4434,1.4512,1.454,1.4594,1.4604,1.4623,1.4632,1.4623,1.4668,1.4671,1.4675,1.4688,1.4693,1.4632,1.4632,1.4632,1.4632,0,1.4212,1.4251,1.4277,1.4326,1.4354,1.4392,1.4419,1.4444,1.4455,1.4475,1.4522,1.4555,1.4598,1.4612,1.4623,1.4667,1.4663,1.4663,1.4654,1.468,1.4692,1.4698,1.4633,1.4633,1.4633,1.4632,0,0,1.4248,1.4308,1.4317,1.4338,1.4384,1.4414,1.4451,1.4493,1.4512,1.4547,1.4577,1.463,1.4629,1.4654,1.4668,1.469,1.4719,1.4686,1.4688,1.469,1.4766,1.4765,1.477,1.4723,1.4724,1.4725,1.4762,0,1.4289,1.4358,1.4378,1.4435,1.447,1.4482,1.4515,1.4545,1.4565,1.4596,1.4617,1.4653,1.4651,1.4665,1.4687,1.4711,1.4734,1.4708,1.475,1.4751,1.4739,1.4777,1.4777,1.4811,1.4767,1.4768,1.4769,0,1.4347,1.4382,1.4442,1.4481,1.4496,1.4525,1.4563,1.4593,1.4627,1.464,1.4666,1.4677,1.4715,1.4704,1.4754,1.4736,1.4754,1.4768,1.4769,1.4774,1.4761,1.4781,1.4822,1.4827,1.4777,1.4776,1.4776,0,1.4364,1.4426,1.447,1.4487,1.4535,1.4554,1.4574,1.4607,1.463,1.4663,1.4677,1.4714,1.4733,1.476,1.4781,1.4771,1.4828,1.482,1.4838,1.4838,1.485,1.4848,1.4893,1.4863,1.4863,1.4863,1.4862,0,1.4408,1.4443,1.4478,1.4504,1.4544,1.4566,1.4604,1.4625,1.4653,1.4683,1.4696,1.4723,1.4748,1.4778,1.4794,1.4832,1.4841,1.4851,1.4854,1.4849,1.4848,1.4861,1.4859,1.4864,1.4864,1.4863,1.4863,0,1.4434,1.4459,1.4507,1.4547,1.4557,1.4584,1.4618,1.4643,1.4662,1.4699,1.4709,1.4738,1.4774,1.4797,1.4842,1.4852,1.4893,1.4897,1.4882,1.4883,1.49,1.4897,1.4954,1.4961,1.4927,1.4927,1.4928,0,1.446,1.4487,1.453,1.4551,1.4571,1.4604,1.4627,1.4649,1.4672,1.4711,1.4731,1.4767,1.4797,1.4852,1.4877,1.4911,1.4915,1.4932,1.492,1.4913,1.4913,1.4911,1.4912,1.4933,1.4934,1.4934,1.4934,0,1.4502,1.4512,1.4545,1.4581,1.4607,1.4637,1.4666,1.4682,1.4709,1.4733,1.477,1.4793,1.4838,1.4873,1.4908,1.4928,1.4935,1.4938,1.4943,1.4938,1.4928,1.4932,1.4886,1.4936,1.4936,1.4936,1.4936,1.4936,1.4528,1.4552,1.4585,1.462,1.4644,1.4671,1.4695,1.4717,1.4748,1.4787,1.4798,1.4835,1.4865,1.4913,1.4933,1.4961,1.4959,1.4968,1.497,1.4971,1.497,1.4923,1.4968,1.4968,1.4968,1.4968,1.4968,0,1.4569,1.459,1.4622,1.4663,1.4689,1.4694,1.4726,1.4748,1.478,1.4808,1.4837,1.4877,1.491,1.4937,1.4971,1.4988,1.4992,1.4996,1.4994,1.4998,1.4971,1.4962,1.4992,1.4992,1.4992,1.4992,1.4992,1.4992,1.4593,1.4634,1.4647,1.4699,1.472,1.4756,1.4774,1.4797,1.482,1.4864,1.4892,1.4909,1.4935,1.4971,1.5,1.5007,1.5018,1.5021,1.5029,1.5003,1.5,1.4998,1.4989,1.5024,1.5024,1.5053,1.5053,1.5053]}]]